Terug naar catalogus

CONNECTA IOT-7

ActiefCommunicatieSSO
NORAD 62715·PAYLOAD·🇹🇷 Turkey

Gelanceerd Jan 14, 2025 vanaf Vandenberg Space Force Base

Loading…

Volgende Passages (komende 24 uur)

TLE

VersSource: Space-Track

Epoch: Sep 14, 2026, 10:24 UTC

1 62715U 25009DL  26257.43345841  .00001930  00000-0  18461-3 0  9997
2 62715  97.7023 334.5351 0000443 156.1629 203.9612 14.94370700 90676

Volg CONNECTA IOT-7 in realtime met AllMySat

Download on the App Store